TimeEST,TemperatureF,Dew PointF,Humidity,Sea Level PressureIn,VisibilityMPH,Wind Direction,Wind SpeedMPH,Gust SpeedMPH,PrecipitationIn,Events,Conditions,WindDirDegrees,DateUTC
12:31 AM,39.2,39.2,100,30.00,1.5,Calm,Calm,-,0.06,Rain,Light Rain,0,2012-12-08 05:31:00
12:38 AM,39.2,39.2,100,29.99,2.0,Calm,Calm,-,0.07,Rain,Light Rain,0,2012-12-08 05:38:00
12:50 AM,39.2,39.2,100,29.99,2.0,Calm,Calm,-,0.08,Rain,Light Rain,0,2012-12-08 05:50:00
12:53 AM,39.9,39.9,100,30.00,2.5,Calm,Calm,-,0.08,Rain,Light Rain,0,2012-12-08 05:53:00
1:04 AM,39.2,39.2,100,29.98,1.2,Calm,Calm,-,0.02,Rain,Light Rain,0,2012-12-08 06:04:00
1:48 AM,39.2,39.2,100,29.97,1.8,Calm,Calm,-,0.11,Rain,Light Rain,0,2012-12-08 06:48:00
1:53 AM,39.9,39.9,100,29.98,2.0,Calm,Calm,-,0.11,Rain,Light Rain,0,2012-12-08 06:53:00
2:02 AM,39.2,39.2,100,29.97,1.8,Calm,Calm,-,0.01,Rain,Light Rain,0,2012-12-08 07:02:00
2:28 AM,39.2,39.2,100,29.97,2.5,Calm,Calm,-,0.02,Rain,Light Rain,0,2012-12-08 07:28:00
2:53 AM,41.0,39.9,96,29.96,2.0,Calm,Calm,-,0.02,Rain,Light Rain,0,2012-12-08 07:53:00
3:45 AM,41.0,41.0,100,29.94,1.8,Calm,Calm,-,0.02,Rain,Light Rain,0,2012-12-08 08:45:00
3:53 AM,41.0,41.0,100,29.94,1.8,Calm,Calm,-,0.02,,Overcast,0,2012-12-08 08:53:00
4:40 AM,42.8,41.0,93,29.91,2.5,Calm,Calm,-,0.01,,Overcast,0,2012-12-08 09:40:00
4:53 AM,42.1,41.0,96,29.92,2.5,NW,3.5,-,0.01,,Overcast,310,2012-12-08 09:53:00
5:01 AM,42.8,41.0,93,29.91,3.0,Calm,Calm,-,N/A,,Overcast,0,2012-12-08 10:01:00
5:37 AM,42.8,41.0,93,29.91,7.0,NNW,4.6,-,N/A,,Overcast,330,2012-12-08 10:37:00
5:53 AM,42.1,41.0,96,29.92,4.0,NW,3.5,-,N/A,,Overcast,320,2012-12-08 10:53:00
6:34 AM,42.8,42.8,100,29.91,2.5,NNW,3.5,-,N/A,,Overcast,330,2012-12-08 11:34:00
6:53 AM,42.1,42.1,100,29.91,2.5,Calm,Calm,-,N/A,,Overcast,0,2012-12-08 11:53:00
7:21 AM,42.8,42.8,100,29.90,3.0,Calm,Calm,-,N/A,,Overcast,0,2012-12-08 12:21:00
7:32 AM,42.8,42.8,100,29.90,2.0,Calm,Calm,-,N/A,,Overcast,0,2012-12-08 12:32:00
7:44 AM,42.8,42.8,100,29.90,1.8,Calm,Calm,-,N/A,,Overcast,0,2012-12-08 12:44:00
7:53 AM,42.1,42.1,100,29.91,1.8,Calm,Calm,-,N/A,,Overcast,0,2012-12-08 12:53:00
8:53 AM,43.0,43.0,100,29.92,1.8,Calm,Calm,-,N/A,,Overcast,0,2012-12-08 13:53:00
9:05 AM,44.6,42.8,93,29.91,1.8,Calm,Calm,-,N/A,,Overcast,0,2012-12-08 14:05:00
9:14 AM,44.6,42.8,93,29.91,2.0,Calm,Calm,-,N/A,,Overcast,0,2012-12-08 14:14:00
9:34 AM,44.6,42.8,93,29.92,1.8,Calm,Calm,-,N/A,,Overcast,0,2012-12-08 14:34:00
9:48 AM,44.6,44.6,100,29.92,1.8,Calm,Calm,-,N/A,,Overcast,0,2012-12-08 14:48:00
9:53 AM,45.0,44.1,97,29.93,2.0,Calm,Calm,-,N/A,,Overcast,0,2012-12-08 14:53:00
10:23 AM,46.4,44.6,93,29.91,3.0,Calm,Calm,-,N/A,,Overcast,0,2012-12-08 15:23:00
10:38 AM,46.4,44.6,93,29.91,1.8,Calm,Calm,-,N/A,,Overcast,0,2012-12-08 15:38:00
10:53 AM,46.0,45.0,96,29.91,1.8,Calm,Calm,-,N/A,,Overcast,0,2012-12-08 15:53:00
11:18 AM,46.4,46.4,100,29.90,2.0,Calm,Calm,-,N/A,,Overcast,0,2012-12-08 16:18:00
11:32 AM,46.4,46.4,100,29.89,3.0,Calm,Calm,-,N/A,,Overcast,0,2012-12-08 16:32:00
11:53 AM,46.9,46.0,97,29.90,3.0,Calm,Calm,-,N/A,,Overcast,0,2012-12-08 16:53:00
12:37 PM,48.2,46.4,93,29.87,5.0,Calm,Calm,-,N/A,,Overcast,0,2012-12-08 17:37:00
12:53 PM,48.9,46.9,93,29.88,5.0,Calm,Calm,-,N/A,,Overcast,0,2012-12-08 17:53:00
1:15 PM,48.2,46.4,93,29.87,10.0,Calm,Calm,-,N/A,,Overcast,0,2012-12-08 18:15:00
1:53 PM,50.0,46.9,89,29.88,10.0,Calm,Calm,-,N/A,,Overcast,0,2012-12-08 18:53:00
2:34 PM,50.0,46.4,87,29.88,10.0,WNW,4.6,-,N/A,,Overcast,300,2012-12-08 19:34:00
2:53 PM,50.0,46.9,89,29.89,10.0,Calm,Calm,-,N/A,,Overcast,0,2012-12-08 19:53:00
3:53 PM,50.0,46.9,89,29.90,7.0,Calm,Calm,-,N/A,,Overcast,0,2012-12-08 20:53:00
4:53 PM,50.0,46.9,89,29.91,7.0,Calm,Calm,-,N/A,,Overcast,0,2012-12-08 21:53:00
5:53 PM,48.2,46.4,93,29.91,5.0,Calm,Calm,-,N/A,,Overcast,0,2012-12-08 22:53:00
6:41 PM,48.2,46.4,93,29.93,6.0,Calm,Calm,-,N/A,,Overcast,0,2012-12-08 23:41:00
6:53 PM,48.0,46.9,96,29.94,5.0,Calm,Calm,-,N/A,,Overcast,0,2012-12-08 23:53:00
7:53 PM,48.0,46.9,96,29.96,5.0,Calm,Calm,-,N/A,,Overcast,0,2012-12-09 00:53:00
8:39 PM,48.2,46.4,93,29.96,5.0,Calm,Calm,-,N/A,,Overcast,0,2012-12-09 01:39:00
8:51 PM,48.2,46.4,93,29.96,4.0,Calm,Calm,-,N/A,,Overcast,0,2012-12-09 01:51:00
8:53 PM,48.0,46.9,96,29.97,4.0,North,3.5,-,N/A,,Overcast,350,2012-12-09 01:53:00
9:40 PM,46.4,46.4,100,29.97,2.5,Calm,Calm,-,0.00,Rain,Light Rain,0,2012-12-09 02:40:00
9:53 PM,46.9,46.9,100,29.99,2.0,Calm,Calm,-,0.00,,Overcast,0,2012-12-09 02:53:00
10:14 PM,48.2,46.4,93,29.98,2.0,Calm,Calm,-,0.02,Rain,Light Rain,0,2012-12-09 03:14:00
10:37 PM,46.4,46.4,100,29.99,1.2,Calm,Calm,-,0.03,Rain,Light Rain,0,2012-12-09 03:37:00
10:53 PM,48.0,46.9,96,30.00,1.8,Calm,Calm,-,0.03,Rain,Light Rain,0,2012-12-09 03:53:00
11:11 PM,46.4,46.4,100,29.99,0.5,Calm,Calm,-,0.00,Fog,Fog,0,2012-12-09 04:11:00
11:50 PM,46.4,46.4,100,30.00,1.2,Calm,Calm,-,0.00,Rain,Light Rain,0,2012-12-09 04:50:00
11:53 PM,46.9,46.9,100,30.01,1.0,Calm,Calm,-,0.00,,Overcast,0,2012-12-09 04:53:00